Hourly Weather Bolshie Meteski

Today, 17 June, Thursday

Time Temperature Precipitation Wind Pressure Humidity
00:00 +16°C° 1 mm 7 mps 747 mmHg 91%
01:00 +15°C° 0 mm 6 mps 748 mmHg 90%
02:00 +14°C° 0 mm 6 mps 748 mmHg 90%
03:00 +13°C° 0 mm 6 mps 749 mmHg 89%
04:00 +13°C° 0 mm 6 mps 749 mmHg 86%
05:00 +14°C° 0 mm 6 mps 750 mmHg 83%
06:00 +14°C° 0 mm 6 mps 750 mmHg 81%
07:00 +16°C° 0 mm 6 mps 751 mmHg 72%
08:00 +17°C° 0 mm 6 mps 751 mmHg 64%
09:00 +20°C° 0 mm 6 mps 752 mmHg 55%
10:00 +20°C° 0 mm 6 mps 752 mmHg 53%
11:00 +21°C° 0 mm 6 mps 752 mmHg 51%
12:00 +22°C° 0 mm 6 mps 752 mmHg 48%
13:00 +21°C° 0 mm 5 mps 752 mmHg 52%
14:00 +21°C° 0 mm 5 mps 752 mmHg 55%
15:00 +21°C° 0 mm 4 mps 753 mmHg 59%
16:00 +20°C° 0 mm 4 mps 753 mmHg 62%
17:00 +19°C° 0 mm 3 mps 753 mmHg 65%
18:00 +19°C° 0 mm 3 mps 753 mmHg 67%
19:00 +18°C° 0 mm 3 mps 754 mmHg 68%
20:00 +17°C° 0 mm 4 mps 754 mmHg 69%
21:00 +15°C° 0 mm 4 mps 755 mmHg 69%
22:00 +13°C° 0 mm 4 mps 755 mmHg 71%
23:00 +12°C° 0 mm 4 mps 755 mmHg 73%

Tomorrow, 18 June, Friday

Time Temperature Precipitation Wind Pressure Humidity
00:00 +11°C° 0 mm 3 mps 756 mmHg 75%
01:00 +10°C° 0 mm 3 mps 756 mmHg 77%
02:00 +10°C° 0 mm 3 mps 757 mmHg 78%
03:00 +9°C° 0 mm 3 mps 757 mmHg 80%
04:00 +10°C° 0 mm 4 mps 757 mmHg 76%
05:00 +11°C° 0 mm 4 mps 758 mmHg 73%
06:00 +12°C° 0 mm 5 mps 758 mmHg 69%
07:00 +13°C° 0 mm 5 mps 758 mmHg 65%
08:00 +14°C° 0 mm 6 mps 759 mmHg 61%
09:00 +15°C° 0 mm 6 mps 759 mmHg 56%
10:00 +16°C° 0 mm 6 mps 759 mmHg 54%
11:00 +17°C° 0 mm 6 mps 759 mmHg 52%
12:00 +19°C° 0 mm 6 mps 759 mmHg 50%
13:00 +19°C° 0 mm 5 mps 759 mmHg 50%
14:00 +19°C° 0 mm 5 mps 759 mmHg 49%
15:00 +20°C° 0 mm 5 mps 759 mmHg 48%
16:00 +19°C° 0 mm 4 mps 759 mmHg 53%
17:00 +19°C° 0 mm 3 mps 759 mmHg 58%
18:00 +19°C° 0 mm 2 mps 759 mmHg 63%
19:00 +17°C° 0 mm 2 mps 759 mmHg 64%
20:00 +16°C° 0 mm 1 mps 759 mmHg 66%
21:00 +15°C° 0 mm 1 mps 759 mmHg 67%
22:00 +14°C° 0 mm 1 mps 759 mmHg 67%
23:00 +14°C° 0 mm 2 mps 759 mmHg 67%

Day after tomorrow, 19 June, Saturday

Time Temperature Precipitation Wind Pressure Humidity
00:00 +14°C° 0 mm 2 mps 759 mmHg 67%
01:00 +12°C° 0 mm 3 mps 759 mmHg 68%
02:00 +12°C° 0 mm 3 mps 759 mmHg 70%
03:00 +12°C° 0 mm 3 mps 759 mmHg 71%
04:00 +13°C° 0 mm 3 mps 759 mmHg 72%
05:00 +14°C° 0 mm 4 mps 759 mmHg 73%
06:00 +15°C° 0 mm 4 mps 759 mmHg 75%
07:00 +17°C° 0 mm 5 mps 759 mmHg 72%
08:00 +19°C° 0 mm 5 mps 758 mmHg 69%
09:00 +21°C° 0 mm 6 mps 758 mmHg 66%
10:00 +22°C° 0 mm 6 mps 758 mmHg 64%
11:00 +24°C° 0 mm 6 mps 757 mmHg 62%
12:00 +26°C° 0 mm 7 mps 757 mmHg 60%
13:00 +26°C° 0 mm 6 mps 757 mmHg 61%
14:00 +27°C° 0 mm 6 mps 756 mmHg 61%
15:00 +28°C° 0 mm 6 mps 756 mmHg 61%
16:00 +27°C° 0 mm 6 mps 756 mmHg 64%
17:00 +26°C° 0 mm 6 mps 755 mmHg 68%
18:00 +24°C° 0 mm 6 mps 755 mmHg 72%
19:00 +23°C° 0 mm 6 mps 755 mmHg 76%
20:00 +22°C° 0 mm 5 mps 755 mmHg 81%
21:00 +21°C° 0 mm 5 mps 755 mmHg 85%
22:00 +20°C° 0 mm 5 mps 755 mmHg 88%
23:00 +20°C° 0 mm 4 mps 755 mmHg 90%

20 June, Sunday

Time Temperature Precipitation Wind Pressure Humidity
00:00 +19°C° 0 mm 4 mps 755 mmHg 92%
01:00 +18°C° 0 mm 4 mps 755 mmHg 93%
02:00 +18°C° 0 mm 4 mps 756 mmHg 93%
03:00 +18°C° 0 mm 4 mps 756 mmHg 94%
04:00 +19°C° 0 mm 4 mps 756 mmHg 90%
05:00 +20°C° 0 mm 4 mps 756 mmHg 86%
06:00 +21°C° 0 mm 4 mps 756 mmHg 82%
07:00 +23°C° 0 mm 4 mps 756 mmHg 76%
08:00 +25°C° 0 mm 4 mps 756 mmHg 71%
09:00 +27°C° 0 mm 5 mps 756 mmHg 65%
10:00 +28°C° 0 mm 5 mps 756 mmHg 61%
11:00 +29°C° 0 mm 5 mps 756 mmHg 57%
12:00 +30°C° 0 mm 5 mps 756 mmHg 53%
13:00 +30°C° 0 mm 4 mps 756 mmHg 52%
14:00 +30°C° 0 mm 4 mps 756 mmHg 51%
15:00 +32°C° 0 mm 4 mps 755 mmHg 50%
16:00 +30°C° 0 mm 3 mps 755 mmHg 56%
17:00 +29°C° 0 mm 2 mps 755 mmHg 62%
18:00 +28°C° 0 mm 2 mps 755 mmHg 68%
19:00 +27°C° 0 mm 1 mps 755 mmHg 72%
20:00 +25°C° 0 mm 1 mps 756 mmHg 77%
21:00 +23°C° 0 mm 1 mps 756 mmHg 81%
22:00 +23°C° 0 mm 1 mps 756 mmHg 82%
23:00 +22°C° 0 mm 1 mps 756 mmHg 83%

21 June, Monday

Time Temperature Precipitation Wind Pressure Humidity
00:00 +22°C° 0 mm 1 mps 756 mmHg 84%
01:00 +22°C° 0 mm 1 mps 756 mmHg 84%
02:00 +22°C° 0 mm 1 mps 756 mmHg 84%
03:00 +22°C° 0 mm 1 mps 756 mmHg 84%
04:00 +22°C° 0 mm 1 mps 756 mmHg 84%
05:00 +23°C° 0 mm 1 mps 756 mmHg 83%
06:00 +23°C° 0 mm 1 mps 756 mmHg 83%
07:00 +24°C° 0 mm 2 mps 756 mmHg 78%
08:00 +25°C° 0 mm 2 mps 756 mmHg 74%
09:00 +26°C° 0 mm 2 mps 756 mmHg 70%
10:00 +27°C° 0.1 mm 3 mps 756 mmHg 66%
11:00 +28°C° 0.1 mm 3 mps 756 mmHg 62%
12:00 +29°C° 0.1 mm 3 mps 756 mmHg 58%
13:00 +29°C° 0.4 mm 3 mps 755 mmHg 58%
14:00 +29°C° 0.4 mm 4 mps 755 mmHg 58%
15:00 +30°C° 0.4 mm 4 mps 755 mmHg 58%
16:00 +29°C° 0.1 mm 4 mps 755 mmHg 62%
17:00 +28°C° 0.1 mm 3 mps 755 mmHg 66%
18:00 +27°C° 0.1 mm 3 mps 755 mmHg 71%
19:00 +25°C° 0 mm 3 mps 755 mmHg 74%
20:00 +24°C° 0 mm 3 mps 754 mmHg 77%
21:00 +21°C° 0 mm 3 mps 754 mmHg 80%
22:00 +21°C° 0 mm 3 mps 754 mmHg 83%
23:00 +20°C° 0 mm 3 mps 754 mmHg 86%

22 June, Tuesday

Time Temperature Precipitation Wind Pressure Humidity
00:00 +20°C° 0 mm 3 mps 754 mmHg 88%
01:00 +19°C° 0 mm 3 mps 754 mmHg 88%
02:00 +19°C° 0 mm 2 mps 754 mmHg 89%
03:00 +19°C° 0 mm 2 mps 754 mmHg 89%
04:00 +20°C° 0 mm 3 mps 754 mmHg 86%
05:00 +21°C° 0 mm 3 mps 755 mmHg 82%
06:00 +22°C° 0 mm 3 mps 755 mmHg 79%
07:00 +24°C° 0 mm 3 mps 755 mmHg 74%
08:00 +26°C° 0 mm 3 mps 755 mmHg 69%
09:00 +28°C° 0 mm 4 mps 755 mmHg 65%
10:00 +28°C° 0 mm 4 mps 754 mmHg 61%
11:00 +29°C° 0 mm 4 mps 754 mmHg 58%
12:00 +30°C° 0 mm 4 mps 754 mmHg 54%
13:00 +31°C° 0 mm 3 mps 754 mmHg 53%
14:00 +31°C° 0 mm 3 mps 754 mmHg 52%
15:00 +31°C° 0 mm 3 mps 754 mmHg 52%
16:00 +30°C° 0 mm 2 mps 754 mmHg 58%
17:00 +29°C° 0 mm 2 mps 754 mmHg 64%
18:00 +28°C° 0 mm 2 mps 754 mmHg 71%
19:00 +27°C° 0.1 mm 2 mps 754 mmHg 73%
20:00 +26°C° 0.1 mm 2 mps 754 mmHg 76%
21:00 +24°C° 0.1 mm 2 mps 754 mmHg 79%
22:00 +23°C° 0 mm 2 mps 754 mmHg 80%
23:00 +23°C° 0 mm 2 mps 754 mmHg 82%
Show more